Вернуться в каталог

ONEWEB-0634

АктивенСвязьPO
NORAD 56075·PAYLOAD·🇬🇧 United Kingdom

Запущен Mar 26, 2023 с Satish Dhawan Space Centre

Loading…

Ближайшие Пролёты (ближайшие 24 часа)

TLE

СвежийSource: CelesTrak SupGP

Эпоха: Sep 14, 2026, 21:38 UTC

1 56075C 23043AF  26257.90153194  .00001600  00000+0  42541-2 0  2570
2 56075  87.8975 241.3392 0001765  91.5229 292.2266 13.15543989    18

Отслеживайте ONEWEB-0634 в реальном времени с AllMySat

Download on the App Store